Wind_Speed
4 4 4 4 4 4 4 4 4 4 4 5 5 5 6 6 6 6 6 7 7 7 8 9 9 10 10 11 11 11 12 12 13 13 13 13 14 14 14 14 14 14 14 15 15 15 15 14 15
2 3 3 4 4 4 4 4 3 3 3 4 5 5 5 5 5 6 6 7 7 8 8 9 9 10 10 11 11 11 11 12 12 13 13 13 13 13 13 13 13 13 13 14 14 14 14 14 15
3 3 3 4 4 4 4 4 3 3 3 3 4 5 5 5 5 6 6 7 7 8 9 9 10 10 10 10 11 11 11 12 12 12 12 12 12 13 13 13 13 13 14 14 15 15 15 16 16
3 3 3 4 4 4 4 4 4 3 3 3 3 4 5 5 6 6 7 7 7 8 8 8 9 9 10 10 10 11 11 11 12 12 13 13 13 14 14 14 15 15 15 16 16 17 17 18 18
5 4 4 4 4 4 5 5 4 4 4 4 4 4 5 5 6 6 7 7 7 8 8 8 8 9 10 10 11 11 12 12 13 14 14 15 15 16 16 16 17 17 18 18 18 19 19 19 20
7 6 6 5 5 5 5 5 5 5 5 5 6 6 6 6 6 7 7 7 8 8 8 9 9 10 10 11 12 13 13 14 15 15 16 16 17 18 18 18 18 19 19 19 20 21 21 22 22
10 9 8 8 7 7 7 7 7 7 7 7 7 8 8 8 8 8 8 9 9 9 10 11 11 12 12 13 14 15 15 16 16 17 18 18 18 19 19 19 20 20 21 21 22 22 23 24 24
13 12 11 10 10 9 9 9 8 9 9 9 9 10 10 10 10 10 10 11 11 12 12 13 13 14 15 15 16 16 17 18 18 19 19 19 20 20 20 21 21 22 22 23 24 24 25 25 26
16 15 14 13 12 12 11 11 11 11 11 11 11 12 12 12 12 12 13 13 13 13 14 15 15 16 16 17 18 18 19 19 20 21 21 21 21 21 22 22 23 23 24 24 25 25 26 26 27
19 18 17 16 15 14 14 13 13 13 13 13 13 14 14 14 14 14 15 15 15 16 16 16 17 17 18 19 19 20 21 21 22 22 22 23 23 23 24 24 24 25 25 26 26 26 27 27 28
21 20 19 18 18 17 16 16 15 15 15 15 15 16 16 16 17 17 17 17 18 18 18 18 19 19 20 21 21 22 22 22 23 23 24 24 25 25 25 26 26 26 27 27 27 28 28 28 29
23 22 22 21 20 19 19 18 18 18 18 18 18 18 18 18 19 19 19 19 20 20 20 21 21 21 22 22 23 23 24 24 24 25 25 25 26 26 26 26 27 27 28 28 28 29 29 29 30
25 24 24 23 23 21 21 20 20 20 20 20 20 20 20 20 21 21 22 22 22 22 22 23 23 23 24 24 25 25 25 26 26 26 26 27 27 27 27 28 28 29 29 29 29 30 30 30 31
27 27 27 26 26 24 23 23 23 23 23 22 22 22 22 23 23 24 24 24 25 25 25 25 25 25 26 26 26 27 27 27 27 27 27 28 28 28 28 29 29 30 30 30 30 31 31 31 32
29 29 29 28 28 27 27 26 26 26 25 25 25 25 25 25 25 25 26 26 27 27 27 27 27 27 27 27 27 28 28 28 28 28 29 29 29 29 30 30 31 31 31 31 32 32 32 33 34
31 30 30 29 30 29 29 27 28 28 28 27 27 27 27 27 27 27 27 28 28 28 28 28 28 28 28 28 29 29 29 29 29 29 30 30 30 31 31 32 32 32 32 33 33 33 34 35 35
32 31 31 32 32 31 30 28 30 30 29 29 30 30 29 29 29 29 29 29 29 29 29 29 29 29 29 29 29 30 30 30 30 30 31 31 31 32 32 32 32 33 33 33 34 34 35 35 36
32 32 32 33 34 33 32 29 30 32 31 30 31 31 30 30 30 30 30 30 30 30 30 30 30 30 30 30 30 30 30 30 30 31 31 31 32 32 33 33 33 33 34 34 35 35 35 36 37
34 33 33 34 35 35 33 31 30 33 33 32 32 32 31 31 31 31 31 31 31 31 31 31 30 30 31 31 31 31 31 31 31 31 31 31 32 32 33 33 34 34 35 35 36 36 37 37 38
34 34 33 34 35 36 34 32 30 33 34 34 33 33 33 32 32 32 32 31 31 31 31 31 31 31 32 31 31 31 31 31 32 32 32 32 32 33 33 34 34 35 36 36 37 37 38 39 40
34 33 33 34 35 36 35 32 29 31 33 34 33 33 33 33 32 32 32 31 31 31 31 31 32 32 32 31 31 31 31 31 32 32 32 33 33 34 34 35 36 36 37 37 38 39 40 41 42
34 33 33 34 35 35 35 33 26 29 30 32 33 33 33 32 32 32 32 31 31 32 32 32 32 31 31 31 31 32 32 32 32 33 33 34 34 35 36 36 37 37 38 39 40 41 42 43 43
34 34 34 35 35 35 33 34 28 27 29 31 32 32 32 32 32 32 32 32 32 32 32 32 32 32 32 32 32 32 32 32 33 33 34 34 35 36 37 37 38 38 39 41 42 43 43 44 44
34 34 35 35 36 36 32 33 30 27 28 30 32 32 32 33 32 32 32 32 32 32 32 32 32 32 32 32 32 32 33 33 33 34 35 35 36 37 38 38 39 40 41 43 43 44 45 45 46
35 34 35 36 36 36 33 33 30 28 29 30 31 31 32 32 33 32 32 32 32 32 32 32 32 32 32 32 32 32 33 33 34 35 36 36 37 38 39 39 41 42 43 44 45 46 46 47 48
35 36 36 37 37 36 34 33 29 28 28 30 30 31 31 32 32 32 32 32 32 32 32 32 32 32 32 32 33 33 34 34 35 36 37 37 38 39 40 41 42 43 44 45 46 47 48 48 49
37 37 36 37 38 37 36 32 28 27 29 30 30 31 31 31 32 32 32 31 31 32 32 32 32 32 32 33 33 34 34 35 36 37 37 39 40 41 42 43 44 44 45 47 48 48 49 50 51
37 36 37 38 39 38 36 32 29 27 28 30 31 31 31 31 31 31 31 31 32 32 32 32 32 33 33 33 34 34 35 35 36 37 38 39 41 42 43 44 45 46 47 48 49 50 51 51 52
37 37 38 38 39 39 38 35 30 29 29 30 31 32 32 31 31 31 31 32 32 32 33 33 33 33 34 34 34 35 35 36 37 38 39 41 42 44 45 45 46 47 49 50 51 51 52 53 53
39 38 38 39 39 39 40 38 32 31 31 32 33 33 32 32 32 31 31 32 32 32 33 33 34 34 35 35 35 35 36 37 39 40 42 43 44 45 46 47 48 49 50 51 52 52 53 54 55
Wind_Direction
114 116 122 125 129 136 143 153 171 188 202 209 212 217 222 229 234 240 249 253 258 263 268 272 272 273 273 274 275 277 279 280 281 283 284 285 286 287 287 287 287 287 287 288 289 289 290 290 290
134 137 139 137 135 137 143 151 166 182 197 208 213 216 223 230 237 242 249 256 262 265 269 274 276 277 278 279 280 280 280 282 284 285 286 286 287 288 288 289 289 289 289 289 290 291 291 291 291
160 157 156 150 156 158 161 162 167 172 185 201 210 216 224 231 239 246 250 257 263 266 270 272 275 277 279 280 281 281 281 283 285 285 286 286 287 288 288 289 290 290 289 289 290 290 290 290 290
188 177 175 171 169 175 179 181 182 190 199 207 215 221 230 235 240 246 252 260 264 267 270 272 275 277 279 281 282 283 284 285 286 287 288 288 288 289 288 288 289 289 289 289 289 289 288 288 288
207 197 194 190 189 192 195 198 202 212 222 231 235 236 236 242 245 249 254 259 264 269 272 273 275 277 279 282 283 285 286 287 288 289 289 289 289 289 289 288 288 288 288 288 287 287 287 286 285
219 215 211 210 209 210 211 213 217 226 235 242 247 248 247 251 254 257 259 261 265 269 273 275 276 278 280 281 283 286 287 288 289 290 290 289 289 288 288 288 288 288 288 287 287 286 286 285 284
225 225 222 222 223 223 223 224 227 234 241 248 253 255 256 257 260 263 265 266 269 272 275 277 278 279 280 282 283 285 286 287 288 288 289 289 288 288 288 288 288 288 288 288 287 286 286 285 284
231 230 229 229 230 232 233 234 237 241 245 251 255 257 260 263 265 267 269 271 272 274 276 277 278 278 280 282 283 284 286 287 287 288 288 288 289 288 288 288 289 289 289 289 288 287 287 285 284
235 234 233 233 233 236 239 240 243 246 249 253 256 258 261 265 267 269 270 272 273 275 276 278 279 280 281 282 283 285 286 287 288 288 288 288 289 288 288 289 289 290 290 289 289 288 287 287 286
237 235 236 237 237 238 240 242 244 248 252 254 256 259 262 266 268 270 271 272 273 274 277 278 279 281 282 283 284 285 285 287 287 288 288 288 289 289 289 289 288 289 289 289 289 289 289 288 287
237 237 238 239 241 241 243 245 247 248 251 255 258 261 264 266 268 269 270 272 274 275 277 279 280 281 283 283 283 284 285 286 287 287 287 288 289 289 289 288 287 288 288 289 289 289 289 288 287
238 239 240 241 243 245 246 248 250 251 253 256 259 262 265 267 268 269 271 273 275 276 278 279 280 282 283 284 284 285 285 286 287 287 287 288 288 289 288 288 288 288 289 289 290 290 289 288 287
239 240 241 243 245 247 249 250 251 254 256 258 260 262 265 267 268 269 271 273 275 276 278 279 280 281 282 283 284 285 285 285 286 287 287 288 288 288 289 289 290 290 290 291 291 290 290 289 289
240 241 243 245 247 249 251 252 253 255 258 260 262 263 265 266 268 270 271 273 274 275 277 278 279 280 281 282 283 284 284 284 285 286 287 288 289 289 289 289 290 291 291 291 291 291 291 290 290
242 243 245 247 249 251 252 254 255 257 260 262 263 264 264 266 267 269 271 272 274 276 277 277 278 279 280 281 283 283 283 283 284 286 286 287 288 289 289 289 290 291 291 291 292 292 292 292 292
243 245 247 249 251 252 254 256 258 258 260 262 264 265 266 267 268 269 270 272 274 276 277 277 278 279 280 281 282 282 283 283 284 285 285 286 288 289 289 290 291 291 292 292 292 292 292 293 293
244 246 249 251 252 254 255 257 261 262 262 263 264 265 266 268 269 270 270 272 273 275 276 277 278 279 280 282 283 283 283 284 284 285 286 286 288 289 289 290 291 291 291 292 292 292 293 293 293
245 247 249 251 253 255 256 257 261 265 264 264 264 266 267 268 269 271 272 273 274 275 276 277 278 279 280 282 282 282 283 283 285 286 286 287 288 289 290 290 290 291 291 292 293 293 293 293 293
245 247 249 252 255 256 257 258 261 265 266 266 266 267 268 269 270 271 272 273 274 275 275 277 277 279 280 281 281 282 282 284 285 286 286 287 288 289 290 290 291 291 292 292 293 294 294 294 294
247 249 251 253 256 258 259 260 261 264 266 267 268 268 269 270 271 271 272 273 274 275 276 276 277 278 280 280 281 282 283 284 285 286 286 287 288 289 290 290 291 292 293 293 294 294 294 294 294
249 251 253 255 257 260 262 261 262 264 266 267 268 268 269 270 271 271 272 273 274 275 276 276 277 278 279 280 280 282 283 284 284 285 286 287 288 289 290 290 291 292 293 294 294 295 295 295 295
250 252 254 256 258 261 263 264 258 263 266 268 269 269 269 270 270 271 272 273 274 275 275 276 276 277 278 279 280 282 283 283 284 285 286 287 288 289 290 291 292 292 293 294 295 295 296 296 296
250 252 255 257 259 261 263 267 261 262 264 266 268 269 270 270 271 272 272 273 273 274 275 275 276 277 277 279 280 281 283 283 284 286 286 287 288 290 290 291 292 293 294 295 295 296 296 297 297
250 253 256 258 261 263 264 267 267 265 264 265 266 268 270 270 271 271 272 272 273 273 274 275 276 276 277 279 280 281 283 284 284 285 286 287 288 289 290 291 293 294 295 296 296 297 297 297 297
249 253 257 260 261 264 265 266 269 268 267 266 267 269 270 270 271 271 272 272 272 273 273 274 275 276 277 278 279 281 283 284 284 285 286 287 289 290 291 292 293 295 296 296 297 298 298 298 298
249 252 256 260 264 266 266 266 268 269 269 270 270 271 271 271 271 271 272 272 272 272 272 273 274 275 276 277 279 280 282 284 284 285 286 287 288 290 291 293 294 295 296 297 298 298 298 298 299
246 249 254 259 263 266 267 268 268 270 272 273 274 273 273 272 271 272 271 271 271 271 272 273 274 275 276 277 278 280 281 282 283 284 286 287 288 290 292 293 294 295 296 297 298 298 299 299 299
245 249 251 256 262 266 268 269 272 273 274 275 275 274 274 274 274 273 272 271 271 272 272 273 274 275 276 277 278 280 281 281 283 284 286 287 289 290 291 293 294 295 296 297 298 299 299 299 300
245 248 251 255 259 265 269 271 272 275 276 276 276 275 274 275 275 274 273 273 272 272 272 272 273 274 275 277 278 280 280 281 283 284 285 287 289 290 292 293 294 295 297 298 299 299 299 300 300
244 247 250 255 260 263 267 270 274 276 276 276 275 274 275 275 275 274 274 274 273 272 272 272 272 273 275 276 277 279 280 281 282 283 285 287 289 291 293 294 295 297 298 299 299 299 299 299 300
Height
5881 5881 5882 5883 5884 5883 5883 5883 5883 5883 5884 5884 5884 5885 5885 5886 5887 5889 5886 5885 5885 5885 5885 5885 5884 5884 5884 5884 5883 5883 5882 5882 5881 5881 5880 5879 5879 5878 5877 5876 5875 5874 5873 5872 5872 5871 5870 5869 5868
5881 5881 5882 5883 5883 5883 5883 5883 5883 5883 5883 5883 5884 5884 5885 5885 5885 5885 5884 5884 5884 5884 5883 5883 5883 5883 5882 5882 5882 5881 5881 5880 5880 5879 5878 5877 5877 5876 5875 5874 5873 5872 5871 5870 5869 5868 5867 5867 5866
5881 5881 5883 5883 5882 5883 5883 5883 5882 5882 5883 5883 5883 5884 5884 5884 5884 5884 5883 5883 5883 5882 5882 5882 5882 5881 5881 5880 5880 5880 5879 5879 5878 5877 5876 5876 5875 5874 5873 5872 5871 5870 5869 5868 5867 5866 5865 5864 5863
5881 5882 5882 5883 5882 5882 5882 5882 5882 5882 5882 5882 5883 5883 5883 5883 5883 5883 5882 5882 5882 5881 5881 5880 5880 5880 5879 5879 5878 5878 5877 5877 5876 5875 5875 5874 5873 5872 5871 5870 5869 5868 5866 5865 5864 5863 5862 5861 5860
5880 5881 5881 5881 5881 5881 5881 5881 5881 5881 5881 5882 5882 5882 5882 5882 5881 5881 5881 5881 5880 5880 5879 5879 5879 5878 5878 5877 5877 5876 5875 5875 5874 5873 5872 5871 5870 5869 5868 5867 5866 5865 5863 5862 5861 5860 5859 5857 5856
5879 5880 5880 5880 5880 5880 5880 5880 5880 5880 5880 5881 5881 5881 5881 5881 5880 5880 5880 5879 5879 5878 5878 5877 5877 5876 5876 5875 5875 5874 5873 5872 5871 5870 5869 5868 5867 5866 5865 5864 5863 5861 5860 5859 5857 5856 5855 5853 5852
5878 5878 5878 5878 5878 5878 5879 5879 5879 5879 5879 5879 5879 5879 5879 5879 5879 5878 5878 5878 5877 5877 5876 5876 5875 5874 5874 5873 5872 5871 5871 5870 5869 5867 5866 5865 5864 5863 5861 5860 5859 5857 5856 5855 5853 5852 5850 5849 5848
5874 5876 5876 5876 5876 5877 5877 5877 5877 5877 5877 5877 5877 5877 5877 5877 5877 5876 5876 5876 5875 5875 5874 5873 5873 5872 5871 5870 5869 5868 5868 5866 5865 5864 5863 5862 5860 5859 5857 5856 5854 5853 5852 5850 5848 5847 5845 5844 5842
5871 5874 5873 5874 5874 5874 5874 5875 5875 5875 5875 5875 5875 5875 5875 5874 5874 5874 5874 5873 5873 5872 5871 5871 5870 5869 5868 5867 5866 5865 5864 5863 5862 5861 5859 5858 5856 5855 5853 5852 5850 5848 5847 5845 5843 5842 5840 5838 5837
5868 5869 5870 5871 5871 5871 5872 5872 5872 5872 5872 5872 5872 5872 5871 5871 5871 5871 5871 5870 5870 5869 5868 5868 5867 5865 5864 5863 5862 5861 5860 5859 5858 5857 5855 5854 5852 5851 5849 5847 5845 5844 5842 5840 5838 5836 5834 5832 5831
5863 5865 5866 5867 5867 5868 5868 5869 5869 5869 5869 5869 5869 5868 5868 5868 5868 5867 5867 5867 5866 5866 5865 5864 5863 5862 5861 5860 5858 5857 5856 5855 5854 5852 5851 5849 5847 5846 5844 5842 5840 5838 5836 5834 5832 5830 5828 5826 5824
5859 5860 5861 5862 5863 5864 5865 5865 5865 5865 5866 5865 5865 5865 5864 5864 5864 5863 5863 5862 5862 5862 5861 5860 5859 5858 5857 5856 5854 5853 5852 5850 5849 5847 5846 5844 5842 5841 5839 5837 5835 5833 5831 5829 5826 5824 5822 5820 5818
5854 5855 5856 5857 5859 5860 5861 5861 5861 5861 5861 5861 5861 5861 5860 5860 5860 5859 5858 5858 5858 5857 5856 5855 5854 5853 5852 5851 5850 5848 5847 5845 5844 5842 5840 5839 5837 5835 5833 5831 5829 5827 5825 5823 5820 5818 5816 5813 5811
5849 5850 5851 5852 5853 5855 5856 5856 5857 5857 5856 5856 5856 5856 5856 5855 5855 5854 5854 5853 5852 5852 5851 5850 5849 5848 5847 5846 5845 5843 5842 5840 5839 5837 5835 5833 5831 5829 5827 5825 5823 5821 5818 5816 5814 5811 5809 5807 5804
5843 5844 5846 5847 5848 5849 5851 5852 5852 5851 5852 5852 5851 5851 5851 5850 5850 5849 5849 5848 5847 5846 5846 5845 5844 5843 5841 5840 5839 5838 5836 5834 5833 5831 5829 5827 5825 5823 5821 5819 5817 5814 5812 5810 5807 5805 5802 5800 5797
5836 5839 5840 5842 5842 5843 5846 5847 5846 5846 5846 5846 5846 5846 5845 5845 5844 5844 5843 5842 5842 5841 5840 5839 5838 5837 5836 5834 5833 5832 5830 5828 5827 5825 5823 5821 5819 5817 5814 5812 5810 5807 5805 5802 5800 5797 5795 5792 5790
5830 5833 5834 5835 5836 5837 5839 5841 5839 5839 5840 5840 5840 5839 5839 5839 5838 5838 5837 5836 5836 5835 5834 5833 5832 5831 5829 5828 5827 5825 5824 5822 5820 5818 5816 5814 5812 5810 5808 5805 5803 5800 5798 5795 5793 5790 5787 5785 5782
5825 5826 5827 5828 5829 5830 5832 5834 5834 5832 5833 5833 5833 5833 5833 5833 5832 5831 5830 5830 5829 5828 5827 5826 5825 5824 5823 5821 5820 5819 5817 5815 5813 5812 5810 5808 5805 5803 5801 5798 5796 5793 5791 5788 5785 5783 5780 5777 5774
5817 5819 5821 5822 5821 5823 5825 5827 5828 5826 5826 5826 5826 5826 5826 5826 5825 5824 5824 5823 5822 5821 5821 5819 5818 5817 5816 5815 5813 5812 5810 5808 5807 5805 5803 5801 5798 5796 5794 5791 5789 5786 5784 5781 5778 5775 5772 5769 5766
5810 5812 5814 5815 5814 5815 5817 5820 5821 5819 5819 5819 5819 5819 5819 5818 5818 5817 5816 5816 5815 5814 5813 5812 5811 5810 5809 5808 5806 5805 5803 5801 5800 5798 5796 5793 5791 5789 5786 5784 5781 5779 5776 5773 5770 5767 5764 5760 5757
5802 5805 5807 5808 5808 5808 5809 5813 5815 5813 5812 5812 5811 5811 5811 5811 5810 5810 5809 5809 5808 5807 5806 5805 5804 5803 5801 5800 5799 5797 5796 5794 5792 5790 5788 5786 5784 5781 5779 5776 5774 5771 5768 5765 5762 5758 5755 5752 5748
5795 5798 5799 5800 5801 5801 5803 5804 5809 5807 5805 5804 5804 5804 5804 5803 5803 5802 5802 5801 5800 5799 5799 5798 5796 5795 5794 5793 5791 5790 5788 5787 5785 5783 5781 5779 5776 5774 5771 5768 5766 5763 5759 5756 5753 5749 5746 5742 5738
5788 5790 5792 5792 5793 5794 5795 5795 5801 5801 5799 5798 5797 5796 5796 5796 5796 5795 5794 5793 5793 5792 5791 5790 5789 5788 5786 5785 5784 5782 5781 5779 5777 5775 5773 5771 5768 5766 5763 5760 5757 5754 5751 5747 5744 5740 5736 5732 5728
5781 5783 5784 5784 5785 5787 5789 5789 5791 5793 5792 5791 5790 5789 5788 5788 5788 5787 5786 5786 5785 5784 5783 5782 5781 5780 5779 5777 5776 5775 5773 5771 5769 5767 5765 5763 5760 5757 5754 5751 5748 5745 5741 5738 5734 5730 5726 5721 5717
5774 5776 5777 5777 5778 5779 5781 5781 5784 5784 5784 5783 5782 5782 5781 5780 5780 5779 5779 5778 5777 5776 5776 5774 5773 5772 5771 5770 5768 5767 5765 5763 5761 5759 5757 5754 5751 5749 5746 5742 5739 5735 5732 5728 5723 5719 5715 5710 5706
5766 5768 5770 5771 5771 5771 5772 5774 5777 5777 5775 5774 5774 5774 5773 5772 5771 5771 5770 5770 5769 5768 5768 5767 5766 5764 5763 5762 5760 5759 5757 5755 5753 5750 5748 5745 5742 5739 5736 5733 5729 5725 5721 5717 5713 5708 5704 5699 5694
5758 5760 5763 5763 5762 5763 5763 5766 5769 5769 5768 5767 5766 5765 5765 5764 5763 5763 5762 5762 5761 5760 5759 5759 5758 5756 5755 5754 5752 5750 5748 5746 5744 5742 5739 5736 5733 5730 5726 5723 5719 5715 5711 5707 5702 5697 5692 5688 5682
5750 5752 5754 5754 5754 5754 5756 5758 5761 5761 5760 5759 5758 5757 5756 5756 5755 5755 5754 5753 5753 5752 5751 5750 5749 5748 5747 5745 5744 5742 5740 5738 5735 5733 5730 5727 5724 5720 5716 5713 5709 5705 5700 5695 5691 5686 5680 5675 5670
5742 5744 5745 5746 5747 5748 5748 5752 5753 5753 5752 5751 5750 5749 5748 5748 5747 5746 5746 5745 5744 5744 5743 5742 5741 5739 5738 5737 5735 5733 5731 5728 5726 5723 5720 5717 5714 5710 5706 5702 5698 5693 5689 5684 5679 5674 5668 5663 5657
5732 5735 5737 5739 5739 5740 5740 5745 5745 5745 5744 5742 5741 5740 5740 5740 5739 5738 5737 5737 5736 5735 5734 5733 5732 5731 5729 5728 5726 5724 5722 5719 5716 5713 5710 5707 5703 5699 5695 5691 5687 5682 5677 5672 5666 5661 5656 5650 5644